Regional Weather Roundup
Issued by NWS Wilmington, NC

Home | Current Version | Previous Version | Text Only | Print | Product List | Glossary On
Versions: 1 2 3 4 5 6 7 8 9 10 11 12 13 14 15 16 17 18 19 20 21 22 23 24 25 26 27 28 29 30 31 32 33 34 35 36 37 38 39 40 41 42 43 44 45 46 47 48 49 50
000
ASUS42 KILM 250910
RWRILM
RWRILM
REGIONAL HOURLY WEATHER ROUNDUP
NATIONAL WEATHER SERVICE WILMINGTON NC
500 AM EDT FRI JUL 25 2014

NOTE: "FAIR" INDICATES FEW OR NO CLOUDS BELOW 12,000 FEET WITH NO
SIGNIFICANT WEATHER AND/OR OBSTRUCTIONS TO VISIBILITY.

...............WFO WILMINGTON COUNTY WARNING AREA...............

......COASTAL NC AND SC COUNTIES......

CITY           SKY/WX    TMP DP  RH WIND       PRES   REMARKS
WILMINGTON     CLOUDY    74  72  93 CALM      29.95S
SOUTHPORT      CLOUDY    73  72  95 CALM      29.95F FOG
N MYRTLE BEACH LGT RAIN  75  72  90 SW5       29.96R
MYRTLE BEACH   CLOUDY    75  72  88 CALM      29.96S

......INLAND NC AND SC COUNTIES.......

CITY           SKY/WX    TMP DP  RH WIND       PRES   REMARKS
LUMBERTON      CLOUDY    72  68  87 E6        29.97R
ELIZABETHTOWN  CLOUDY    70  70 100 CALM      29.98R
WHITEVILLE     CLOUDY    73  72  96 CALM      29.96S FOG
FLORENCE       MOCLDY    73  71  93 E3        29.96R
DARLINGTON     MOCLDY    72  68  88 N7        29.98R

....................REST OF NORTH CAROLINA......................

.........EASTERN NC.........

CITY           SKY/WX    TMP DP  RH WIND       PRES   REMARKS
CAPE HATTERAS  MOCLDY    73  72  96 NW6       29.94R
JACKSONVILLE   CLOUDY    68  64  88 NW5       29.98R
MOREHEAD CITY  PTCLDY    74  69  85 NW12      29.96R
KENANSVILLE    CLOUDY    68  66  94 N3        29.99R
NEW BERN       CLOUDY    70  67  90 NW6       29.99R
ELIZABETH CITY CLEAR     69  68  96 NW6       29.96R

.........CENTRAL NC.........

CITY           SKY/WX    TMP DP  RH WIND       PRES   REMARKS
RALEIGH DURHAM FOG       67  65  93 CALM      30.00R VSB 1/2
ROCKY MOUNT    CLEAR     67  65  93 CALM      29.99R
ROANOKE RAPIDS NOT AVBL
FAYETTEVILLE   CLOUDY    70  68  93 NE6       29.98R
HOFFMAN        CLOUDY    72  69  90 NE5       30.00R

.........WESTERN NC.........

CITY           SKY/WX    TMP DP  RH WIND       PRES   REMARKS
CHARLOTTE      PTCLDY    68  64  87 NE5       30.00S
GREENSBORO     CLOUDY    68  66  94 E5        30.02R
HICKORY        NOT AVBL
BOONE          NOT AVBL
ASHEVILLE      NOT AVBL

.....................REST OF SOUTH CAROLINA.....................

.........EASTERN SC.........

CITY           SKY/WX    TMP DP  RH WIND       PRES   REMARKS
CHARLESTON     PTCLDY    80  73  79 SW8       29.96R
BEAUFORT MCAS  CLEAR     79  72  79 NW8       29.97R
HILTON HEAD    NOT AVBL

.........CENTRAL SC.........

CITY           SKY/WX    TMP DP  RH WIND       PRES   REMARKS
COLUMBIA       PTCLDY    77  71  82 S3        29.95S
ORANGEBURG     PTCLDY    77  71  82 W3        29.96R
SUMTER SHAW    PTCLDY    74  73  97 E2        29.96R

.........WESTERN SC.........

CITY           SKY/WX    TMP DP  RH WIND       PRES   REMARKS
GREENVILLE     NOT AVBL
ROCK HILL      CLOUDY    69  66  90 VRB3      30.00R
ANDERSON       CLEAR     71  68  90 NE3       29.97S
CLEMSON        NOT AVBL
GREENWOOD      PTCLDY    73  69  87 NE5       29.98S


...................COASTAL AND OFFSHORE REPORTS..................

................LOCAL PIERS AND NC RESERVE................


STATION/POSITION TIME  SKY/WX   TEMP    WIND        PRES    VSBY
                                AIR SEA DIR/SP/G
                 (UTC)          (F)     (DEG/KT/KT) (MB)    (MI)
JOHNY MRCER PIER 0900            76 83  230/  7/ 10 1013.8R
NC RESRV MASNBRO 0800            73     210/  4     1014.0R
OCEAN CREST PIER 0900            75 83  230/  2/  3 1013.3F
SPRINGMAID  PIER 0900            75 83   40/  2/  2 1014.2F


................COASTAL AND OFFSHORE BUOYS................


STATION/POSITION TIME  SKY/WX   TEMP    WIND        PRES    VSBY
                                AIR SEA DIR/SP/G
                 (UTC)          (F)     (DEG/KT/KT) (MB)    (MI)
DIMNDSHOAL 41025 0900                   VRB 16/ 17  1013.0R
WVE H/P(F/S)=  3/ 8 WND WVE H/P(F/S)=  2/ 6 SWL H/P/D(F/S/D)=  2/130/ 8

CAPE LOOKOUT     0800            74     260/  4/  4 1013.3R
ONSLOW BAY 41036 0900            78 81  200/ 14/ 16 1014.0R
WVE H/P(F/S)=  4/ 7 WND WVE H/P(F/S)=  3/ 6 SWL H/P/D(F/S/D)=  3/180/ 7

5 WRITEBCH 41038 0800            74 81  230/ 12/ 14   N/A
MASONBORO  41110 0900               81                N/A
WVE H/P(F/S)=  3/ 6 WND WVE H/P(F/S)=  3/ 6

WILM HARBR 41108 NOT AVBL
27WRITEBCH 41037 0800            74 81  240/  4/  8 1013.8F
FRYING PAN 41013 NOT AVBL
SUNST NRSH 41024 0800            74     330/  6/  8 1014.0R
CAPRS NRSH 41029 0800            83     260/ 14/ 16   N/A
EDISTO     41004 0900            83 83  230/ 14/ 17 1013.5R
WVE H/P(F/S)=  5/ 5 WND WVE H/P(F/S)=  5/ 5 SWL H/P/D(F/S/D)=  2/11



..........OFFSHORE BUOYS BEYOND 100 NM OFFSHORE...........
.....IN A TRIANGLE---HAT TO BERMUDA TO BAHAMAS TO HAT.....


STATION/POSITION TIME  SKY/WX   TEMP    WIND        PRES    VSBY
                                AIR SEA DIR/SP/G
                 (UTC)          (F)     (DEG/KT/KT) (MB)    (MI)
150E HAT   41001 NOT AVBL
W BERMUDA  41048 0838            82 82  210/ 17/ 21 1017.4R
WVE H/P(F/S)=  6/ 7 WND WVE H/P(F/S)=  7/ 7 SWL H/P/D(F/S/D)=  2/220/10

ATLANTIC S 41049 0850            81 83  120/ 10/ 14 1021.9R
WVE H/P(F/S)=  4/ 7 WND WVE H/P(F/S)=  2/ 4 SWL H/P/D(F/S/D)=  3/150/ 7

E BAHAMAS  41046 0841            82 84  120/ 12/ 16 1019.0R
WVE H/P(F/S)=  4/ 8 WND WVE H/P(F/S)=  3/ 6 SWL H/P/D(F/S/D)=  3/120/ 8

NE BAHAMAS 41047 0819            83 84  200/ 12/ 14 1019.5S
WVE H/P(F/S)=  3/ 8 WND WVE H/P(F/S)=  2/ 5 SWL H/P/D(F/S/D)=  3/140/ 8

120E CANVRL41010 0900            83 83  210/ 14/ 16 1017.6R
WVE H/P(F/S)=  3/ 4 WND WVE H/P(F/S)=  2/ 4 SWL H/P/D(F/S/D)=  2/130/ 7


END


USA.gov is the U.S. government's official web portal to all federal, state and local government web resources and services.